Time,TemperatureF,DewpointF,PressureIn,WindDirection,WindDirectionDegrees,WindSpeedMPH,WindSpeedGustMPH,Humidity,HourlyPrecipIn,Conditions,Clouds,dailyrainin,SoftwareType,DateUTC
2013-03-06 00:01:00,47.0,37.0,29.99,SW,219,12.0,18.0,68,0.00,,,0.00,,2013-03-06 08:01:00,
2013-03-06 00:11:00,47.0,37.0,29.99,SW,219,12.0,18.0,68,0.00,,,0.00,,2013-03-06 08:11:00,
2013-03-06 00:21:00,46.0,36.0,29.98,South,190,11.0,18.0,67,0.00,,,0.00,,2013-03-06 08:21:00,
2013-03-06 00:31:00,47.0,35.0,29.99,SSW,196,11.0,17.0,64,0.00,,,0.00,,2013-03-06 08:31:00,
2013-03-06 00:41:00,47.0,35.0,29.99,SSW,196,11.0,17.0,64,0.00,,,0.00,,2013-03-06 08:41:00,
2013-03-06 00:52:00,46.0,36.0,29.99,SSW,205,12.0,17.0,67,0.00,,,0.00,,2013-03-06 08:52:00,
2013-03-06 01:01:00,45.0,35.0,29.99,SSW,196,10.0,20.0,69,0.00,,,0.00,,2013-03-06 09:01:00,
2013-03-06 01:12:00,45.0,35.0,29.99,SSW,196,10.0,20.0,69,0.00,,,0.00,,2013-03-06 09:12:00,
2013-03-06 01:21:00,45.0,36.0,29.99,WSW,252,3.0,17.0,70,0.00,,,0.00,,2013-03-06 09:21:00,
2013-03-06 01:31:00,46.0,36.0,29.98,SW,229,12.0,22.0,69,0.00,,,0.00,,2013-03-06 09:31:00,
2013-03-06 01:41:00,46.0,36.0,29.98,SW,229,12.0,22.0,69,0.00,,,0.00,,2013-03-06 09:41:00,
2013-03-06 01:52:00,45.0,36.0,29.97,SW,224,16.0,22.0,70,0.00,,,0.00,,2013-03-06 09:52:00,
2013-03-06 02:01:00,45.0,35.0,29.97,SW,216,13.0,24.0,67,0.00,,,0.00,,2013-03-06 10:01:00,
2013-03-06 02:11:00,45.0,35.0,29.97,SW,216,13.0,24.0,67,0.00,,,0.00,,2013-03-06 10:11:00,
2013-03-06 02:21:00,45.0,35.0,29.97,SW,232,10.0,18.0,67,0.00,,,0.00,,2013-03-06 10:21:00,
2013-03-06 02:31:00,45.0,35.0,29.97,SW,218,7.0,22.0,68,0.00,,,0.00,,2013-03-06 10:31:00,
2013-03-06 02:41:00,45.0,35.0,29.97,SW,218,7.0,22.0,68,0.00,,,0.00,,2013-03-06 10:41:00,
2013-03-06 02:52:00,45.0,35.0,29.97,SW,221,11.0,19.0,67,0.00,,,0.00,,2013-03-06 10:52:00,
2013-03-06 03:01:00,45.0,34.0,29.97,SW,228,7.0,17.0,65,0.00,,,0.00,,2013-03-06 11:01:00,
2013-03-06 03:11:00,45.0,34.0,29.97,SW,228,7.0,17.0,65,0.00,,,0.00,,2013-03-06 11:11:00,
2013-03-06 03:22:00,45.0,32.0,29.97,SSW,211,8.0,16.0,61,0.00,,,0.00,,2013-03-06 11:22:00,
2013-03-06 03:31:00,45.0,33.0,29.97,SW,228,13.0,18.0,62,0.00,,,0.00,,2013-03-06 11:31:00,
2013-03-06 03:42:00,45.0,33.0,29.97,SW,228,13.0,18.0,62,0.00,,,0.00,,2013-03-06 11:42:00,
2013-03-06 03:52:00,46.0,33.0,29.98,WSW,249,9.0,20.0,61,0.00,,,0.00,,2013-03-06 11:52:00,
2013-03-06 04:01:00,45.0,34.0,29.98,SW,230,7.0,17.0,65,0.00,,,0.00,,2013-03-06 12:01:00,
2013-03-06 04:11:00,45.0,34.0,29.98,SW,230,7.0,17.0,65,0.00,,,0.00,,2013-03-06 12:11:00,
2013-03-06 04:21:00,44.0,34.0,29.98,SW,226,11.0,16.0,67,0.00,,,0.00,,2013-03-06 12:21:00,
2013-03-06 04:32:00,44.0,34.0,29.99,SW,215,16.0,20.0,68,0.00,,,0.00,,2013-03-06 12:32:00,
2013-03-06 04:42:00,44.0,34.0,29.99,SW,215,16.0,20.0,68,0.00,,,0.00,,2013-03-06 12:42:00,
2013-03-06 04:52:00,44.0,34.0,30.00,SW,217,16.0,22.0,68,0.00,,,0.00,,2013-03-06 12:52:00,
2013-03-06 05:01:00,44.0,34.0,30.00,SW,220,12.0,22.0,68,0.00,,,0.00,,2013-03-06 13:01:00,
2013-03-06 05:11:00,44.0,34.0,30.00,SW,220,12.0,22.0,68,0.00,,,0.00,,2013-03-06 13:11:00,
2013-03-06 05:21:00,44.0,34.0,30.00,SW,222,13.0,20.0,68,0.00,,,0.00,,2013-03-06 13:21:00,
2013-03-06 05:31:00,44.0,34.0,30.01,SSW,197,11.0,18.0,69,0.00,,,0.00,,2013-03-06 13:31:00,
2013-03-06 05:41:00,44.0,34.0,30.01,SSW,197,11.0,18.0,69,0.00,,,0.00,,2013-03-06 13:41:00,
2013-03-06 05:52:00,43.0,34.0,30.01,SSW,213,10.0,18.0,69,0.00,,,0.00,,2013-03-06 13:52:00,
2013-03-06 06:01:00,43.0,34.0,30.01,SSW,200,7.0,13.0,69,0.00,,,0.00,,2013-03-06 14:01:00,
2013-03-06 06:11:00,43.0,34.0,30.01,SSW,200,7.0,13.0,69,0.00,,,0.00,,2013-03-06 14:11:00,
2013-03-06 06:21:00,42.0,33.0,30.01,SSW,193,8.0,15.0,71,0.00,,,0.00,,2013-03-06 14:21:00,
2013-03-06 06:31:00,42.0,33.0,30.01,SSW,211,9.0,18.0,71,0.00,,,0.00,,2013-03-06 14:31:00,
2013-03-06 06:41:00,42.0,33.0,30.01,SSW,211,9.0,18.0,71,0.00,,,0.00,,2013-03-06 14:41:00,
2013-03-06 06:52:00,43.0,34.0,30.02,SW,216,8.0,13.0,69,0.00,,,0.00,,2013-03-06 14:52:00,
2013-03-06 07:01:00,43.0,34.0,30.02,SSW,205,6.0,9.0,69,0.00,,,0.00,,2013-03-06 15:01:00,
2013-03-06 07:11:00,43.0,34.0,30.02,SSW,205,6.0,9.0,69,0.00,,,0.00,,2013-03-06 15:11:00,
2013-03-06 07:21:00,44.0,34.0,30.02,SW,226,10.0,15.0,67,0.00,,,0.00,,2013-03-06 15:21:00,
2013-03-06 07:32:00,45.0,34.0,30.02,SW,222,11.0,15.0,64,0.00,,,0.00,,2013-03-06 15:32:00,
2013-03-06 07:41:00,45.0,34.0,30.02,SW,222,11.0,15.0,64,0.00,,,0.00,,2013-03-06 15:41:00,
2013-03-06 07:52:00,47.0,34.0,30.03,SW,225,11.0,20.0,61,0.00,,,0.00,,2013-03-06 15:52:00,
2013-03-06 08:01:00,48.0,35.0,30.03,SW,226,8.0,14.0,60,0.00,,,0.00,,2013-03-06 16:01:00,
2013-03-06 08:11:00,48.0,35.0,30.03,SW,226,8.0,14.0,60,0.00,,,0.00,,2013-03-06 16:11:00,
2013-03-06 08:21:00,48.0,34.0,30.03,SW,214,12.0,15.0,59,0.00,,,0.00,,2013-03-06 16:21:00,
2013-03-06 08:32:00,47.0,34.0,30.03,SW,217,14.0,18.0,61,0.00,,,0.00,,2013-03-06 16:32:00,
2013-03-06 08:41:00,47.0,34.0,30.03,SW,217,14.0,18.0,61,0.00,,,0.00,,2013-03-06 16:41:00,
2013-03-06 08:52:00,49.0,36.0,30.03,SSW,213,13.0,18.0,60,0.00,,,0.00,,2013-03-06 16:52:00,
2013-03-06 09:01:00,51.0,37.0,30.04,SW,222,12.0,18.0,58,0.00,,,0.00,,2013-03-06 17:01:00,
2013-03-06 09:11:00,51.0,37.0,30.04,SW,222,12.0,18.0,58,0.00,,,0.00,,2013-03-06 17:11:00,
2013-03-06 09:21:00,54.0,39.0,30.04,West,264,9.0,22.0,57,0.00,,,0.00,,2013-03-06 17:21:00,
2013-03-06 09:31:00,54.0,39.0,30.03,West,276,12.0,26.0,57,0.00,,,0.00,,2013-03-06 17:31:00,
2013-03-06 09:41:00,54.0,39.0,30.03,West,276,12.0,26.0,57,0.00,,,0.00,,2013-03-06 17:41:00,
2013-03-06 09:52:00,53.0,39.0,30.03,West,272,10.0,23.0,59,0.00,,,0.00,,2013-03-06 17:52:00,
2013-03-06 10:01:00,54.0,39.0,30.03,West,275,13.0,24.0,57,0.00,,,0.00,,2013-03-06 18:01:00,
2013-03-06 10:28:00,54.0,38.0,30.03,WNW,285,16.0,27.0,54,0.00,,,0.00,,2013-03-06 18:28:00,
2013-03-06 10:41:00,55.0,38.0,30.02,West,262,11.0,26.0,52,0.00,,,0.00,,2013-03-06 18:41:00,
2013-03-06 10:52:00,56.0,38.0,30.02,West,276,17.0,28.0,50,0.00,,,0.00,,2013-03-06 18:52:00,
2013-03-06 11:01:00,55.0,37.0,30.01,West,278,18.0,28.0,50,0.00,,,0.00,,2013-03-06 19:01:00,
2013-03-06 11:11:00,55.0,37.0,30.01,West,278,18.0,28.0,50,0.00,,,0.00,,2013-03-06 19:11:00,
2013-03-06 11:21:00,57.0,38.0,30.01,WNW,290,15.0,25.0,49,0.00,,,0.00,,2013-03-06 19:21:00,
2013-03-06 11:31:00,57.0,38.0,30.01,WNW,285,16.0,30.0,48,0.00,,,0.00,,2013-03-06 19:31:00,
2013-03-06 11:42:00,57.0,38.0,30.01,WNW,285,16.0,30.0,48,0.00,,,0.00,,2013-03-06 19:42:00,
2013-03-06 11:52:00,56.0,37.0,30.01,WNW,287,18.0,39.0,49,0.00,,,0.00,,2013-03-06 19:52:00,
2013-03-06 12:01:00,57.0,37.0,30.00,WNW,282,20.0,33.0,47,0.00,,,0.00,,2013-03-06 20:01:00,
2013-03-06 12:11:00,57.0,37.0,30.00,WNW,282,20.0,33.0,47,0.00,,,0.00,,2013-03-06 20:11:00,
2013-03-06 12:21:00,56.0,37.0,30.00,WNW,290,25.0,34.0,49,0.00,,,0.00,,2013-03-06 20:21:00,
2013-03-06 12:31:00,57.0,36.0,29.96,WNW,287,21.0,31.0,46,0.00,,,0.00,,2013-03-06 20:31:00,
2013-03-06 12:41:00,57.0,36.0,29.96,WNW,287,21.0,31.0,46,0.00,,,0.00,,2013-03-06 20:41:00,
2013-03-06 12:52:00,57.0,38.0,29.96,WNW,292,24.0,36.0,48,0.00,,,0.00,,2013-03-06 20:52:00,
2013-03-06 13:01:00,56.0,37.0,29.97,WNW,290,24.0,34.0,49,0.00,,,0.00,,2013-03-06 21:01:00,
2013-03-06 13:11:00,56.0,37.0,29.97,WNW,290,24.0,34.0,49,0.00,,,0.00,,2013-03-06 21:11:00,
2013-03-06 13:21:00,56.0,37.0,29.96,WNW,302,21.0,35.0,48,0.00,,,0.00,,2013-03-06 21:21:00,
2013-03-06 13:31:00,57.0,36.0,29.95,WNW,285,26.0,34.0,46,0.00,,,0.00,,2013-03-06 21:31:00,
2013-03-06 13:41:00,57.0,36.0,29.95,WNW,285,26.0,34.0,46,0.00,,,0.00,,2013-03-06 21:41:00,
2013-03-06 13:52:00,56.0,37.0,29.96,WNW,293,28.0,36.0,49,0.00,,,0.00,,2013-03-06 21:52:00,
2013-03-06 14:01:00,56.0,38.0,29.96,WNW,291,21.0,33.0,51,0.00,,,0.00,,2013-03-06 22:01:00,
2013-03-06 14:11:00,56.0,38.0,29.96,WNW,291,21.0,33.0,51,0.00,,,0.00,,2013-03-06 22:11:00,
2013-03-06 14:21:00,54.0,38.0,29.96,WNW,286,21.0,34.0,54,0.00,,,0.00,,2013-03-06 22:21:00,
2013-03-06 14:31:00,55.0,38.0,29.96,WNW,292,23.0,31.0,52,0.00,,,0.00,,2013-03-06 22:31:00,
2013-03-06 14:41:00,55.0,38.0,29.96,WNW,292,23.0,31.0,52,0.00,,,0.00,,2013-03-06 22:41:00,
2013-03-06 14:52:00,55.0,39.0,29.96,WNW,297,17.0,30.0,54,0.00,,,0.00,,2013-03-06 22:52:00,
2013-03-06 15:01:00,53.0,39.0,29.96,West,281,18.0,27.0,59,0.00,,,0.00,,2013-03-06 23:01:00,
2013-03-06 15:11:00,53.0,39.0,29.96,West,281,18.0,27.0,59,0.00,,,0.00,,2013-03-06 23:11:00,
2013-03-06 15:21:00,53.0,39.0,29.96,West,275,12.0,20.0,58,0.00,,,0.00,,2013-03-06 23:21:00,
2013-03-06 15:31:00,53.0,39.0,29.95,WNW,287,20.0,26.0,58,0.00,,,0.00,,2013-03-06 23:31:00,
2013-03-06 15:41:00,53.0,39.0,29.95,WNW,286,17.0,26.0,59,0.00,,,0.00,,2013-03-06 23:41:00,
2013-03-06 15:52:00,53.0,39.0,29.95,WNW,286,17.0,26.0,59,0.00,,,0.00,,2013-03-06 23:52:00,
2013-03-06 16:01:00,52.0,39.0,29.95,WNW,284,16.0,22.0,60,0.00,,,0.00,,2013-03-07 00:01:00,
2013-03-06 16:11:00,52.0,39.0,29.95,WNW,284,16.0,22.0,60,0.00,,,0.00,,2013-03-07 00:11:00,
2013-03-06 16:21:00,52.0,39.0,29.95,WNW,285,13.0,19.0,60,0.00,,,0.00,,2013-03-07 00:21:00,
2013-03-06 16:31:00,53.0,39.0,29.94,West,278,10.0,17.0,59,0.00,,,0.00,,2013-03-07 00:31:00,
2013-03-06 16:41:00,53.0,39.0,29.94,West,278,10.0,17.0,59,0.00,,,0.00,,2013-03-07 00:41:00,
2013-03-06 16:52:00,52.0,38.0,29.94,West,269,12.0,19.0,59,0.00,,,0.00,,2013-03-07 00:52:00,
2013-03-06 17:01:00,52.0,39.0,29.94,West,277,10.0,17.0,60,0.00,,,0.00,,2013-03-07 01:01:00,
2013-03-06 17:11:00,52.0,39.0,29.94,West,277,10.0,17.0,60,0.00,,,0.00,,2013-03-07 01:11:00,
2013-03-06 17:21:00,52.0,39.0,29.94,WSW,247,7.0,15.0,61,0.00,,,0.00,,2013-03-07 01:21:00,
2013-03-06 17:31:00,52.0,39.0,29.95,SW,226,8.0,14.0,60,0.00,,,0.00,,2013-03-07 01:31:00,
2013-03-06 17:41:00,52.0,39.0,29.95,SW,226,8.0,14.0,60,0.00,,,0.00,,2013-03-07 01:41:00,
2013-03-06 17:52:00,52.0,39.0,29.95,SSW,205,11.0,21.0,61,0.00,,,0.00,,2013-03-07 01:52:00,
2013-03-06 18:01:00,51.0,40.0,29.95,SW,223,16.0,21.0,66,0.00,,,0.00,,2013-03-07 02:01:00,
2013-03-06 18:11:00,51.0,40.0,29.95,SW,223,16.0,21.0,66,0.00,,,0.00,,2013-03-07 02:11:00,
2013-03-06 18:21:00,51.0,40.0,29.96,SW,222,12.0,21.0,67,0.00,,,0.00,,2013-03-07 02:21:00,
2013-03-06 18:31:00,50.0,40.0,29.96,SW,217,15.0,23.0,68,0.00,,,0.00,,2013-03-07 02:31:00,
2013-03-06 18:41:00,50.0,40.0,29.96,SW,217,15.0,23.0,68,0.00,,,0.00,,2013-03-07 02:41:00,
2013-03-06 18:52:00,50.0,40.0,29.96,SW,217,15.0,23.0,68,0.00,,,0.00,,2013-03-07 02:52:00,
2013-03-06 19:01:00,50.0,40.0,29.96,SW,228,9.0,20.0,69,0.00,,,0.00,,2013-03-07 03:01:00,
2013-03-06 19:11:00,49.0,40.0,29.96,SW,236,6.0,14.0,70,0.00,,,0.00,,2013-03-07 03:11:00,
2013-03-06 19:21:00,49.0,40.0,29.96,SW,236,6.0,14.0,70,0.00,,,0.00,,2013-03-07 03:21:00,
2013-03-06 19:31:00,49.0,40.0,29.96,SW,224,4.0,12.0,70,0.00,,,0.00,,2013-03-07 03:31:00,
2013-03-06 19:41:00,49.0,40.0,29.96,SW,224,4.0,12.0,70,0.00,,,0.00,,2013-03-07 03:41:00,
2013-03-06 19:52:00,48.0,39.0,29.96,SW,219,5.0,9.0,72,0.00,,,0.00,,2013-03-07 03:52:00,
2013-03-06 20:01:00,47.0,39.0,29.96,WSW,247,4.0,8.0,74,0.00,,,0.00,,2013-03-07 04:01:00,
2013-03-06 20:11:00,47.0,39.0,29.96,WSW,247,4.0,8.0,74,0.00,,,0.00,,2013-03-07 04:11:00,
2013-03-06 20:21:00,47.0,39.0,29.95,SW,226,5.0,9.0,74,0.00,,,0.00,,2013-03-07 04:21:00,
2013-03-06 20:31:00,48.0,39.0,29.95,SW,228,3.0,9.0,70,0.00,,,0.00,,2013-03-07 04:31:00,
2013-03-06 20:41:00,48.0,39.0,29.95,SW,228,3.0,9.0,70,0.00,,,0.00,,2013-03-07 04:41:00,
2013-03-06 20:52:00,48.0,38.0,29.95,WSW,242,6.0,12.0,69,0.00,,,0.00,,2013-03-07 04:52:00,
2013-03-06 21:01:00,47.0,38.0,29.94,SW,233,5.0,10.0,70,0.00,,,0.00,,2013-03-07 05:01:00,
2013-03-06 21:12:00,47.0,38.0,29.94,SW,233,5.0,10.0,70,0.00,,,0.00,,2013-03-07 05:12:00,
2013-03-06 21:22:00,48.0,38.0,29.95,SW,230,6.0,16.0,69,0.00,,,0.00,,2013-03-07 05:22:00,
2013-03-06 21:31:00,46.0,38.0,29.95,SW,221,11.0,16.0,74,0.00,,,0.00,,2013-03-07 05:31:00,
2013-03-06 21:41:00,46.0,38.0,29.95,SW,221,11.0,16.0,74,0.00,,,0.00,,2013-03-07 05:41:00,
2013-03-06 21:52:00,47.0,39.0,29.95,SW,221,12.0,15.0,74,0.00,,,0.00,,2013-03-07 05:52:00,
2013-03-06 22:01:00,47.0,39.0,29.96,SW,225,11.0,18.0,74,0.00,,,0.00,,2013-03-07 06:01:00,
2013-03-06 22:11:00,47.0,39.0,29.96,SW,225,11.0,18.0,74,0.00,,,0.00,,2013-03-07 06:11:00,
2013-03-06 22:21:00,47.0,39.0,29.96,SW,222,11.0,14.0,74,0.00,,,0.00,,2013-03-07 06:21:00,
2013-03-06 22:31:00,46.0,38.0,29.96,SW,232,7.0,15.0,74,0.00,,,0.00,,2013-03-07 06:31:00,
2013-03-06 22:41:00,46.0,39.0,29.95,WSW,257,3.0,9.0,75,0.00,,,0.00,,2013-03-07 06:41:00,
2013-03-06 22:52:00,46.0,39.0,29.95,WSW,257,3.0,9.0,75,0.00,,,0.00,,2013-03-07 06:52:00,
2013-03-06 23:01:00,46.0,38.0,29.94,WSW,256,5.0,9.0,73,0.00,,,0.00,,2013-03-07 07:01:00,
2013-03-06 23:11:00,46.0,38.0,29.94,WSW,256,5.0,9.0,73,0.00,,,0.00,,2013-03-07 07:11:00,
2013-03-06 23:21:00,47.0,38.0,29.94,West,264,5.0,11.0,71,0.00,,,0.00,,2013-03-07 07:21:00,
2013-03-06 23:31:00,47.0,38.0,29.94,West,261,5.0,10.0,71,0.00,,,0.00,,2013-03-07 07:31:00,
2013-03-06 23:41:00,47.0,38.0,29.94,West,261,5.0,10.0,71,0.00,,,0.00,,2013-03-07 07:41:00,
2013-03-06 23:52:00,45.0,37.0,29.94,SSW,199,7.0,12.0,72,0.00,,,0.00,,2013-03-07 07:52:00,